Lid_Strength_Index
2 2 2 3 3 3 3 3 3 3 3 3 3 3 3 2 2 1 4 3 2 -1 0 3 3 3 3 4 4 5 6 7 7 7 7 5 5 4 3 4 4 4 4 3 2
2 2 2 3 3 3 3 3 3 3 3 2 3 3 3 2 2 4 1 -2 -2 -1 3 3 4 3 4 4 5 5 5 6 5 5 6 5 5 5 5 5 5 5 3 2 2
2 2 2 2 2 3 3 3 3 3 3 2 2 2 2 2 2 2 -2 -2 -3 -0 3 3 3 4 5 4 4 5 6 6 6 5 4 5 5 4 5 6 5 5 4 3 2
2 2 2 2 2 2 3 3 3 3 3 3 2 2 2 1 7 1 -2 -3 -3 2 3 3 3 5 5 5 4 6 5 5 6 6 5 5 4 6 5 5 3 3 3 2 3
2 1 2 2 2 2 2 3 3 3 3 3 2 2 2 3 3 -1 -3 -1 2 3 4 3 4 4 5 5 5 5 5 5 5 4 4 4 6 6 6 4 3 3 3 3 3
2 2 2 2 2 2 2 3 3 3 3 3 2 2 2 6 1 -0 2 3 3 3 3 3 4 3 4 5 5 4 5 5 5 4 4 5 5 5 5 4 4 4 4 3 3
2 2 2 2 2 2 2 3 3 3 3 2 1 1 2 4 0 1 3 3 3 2 3 2 2 3 3 4 4 4 5 5 5 5 5 4 6 7 5 4 5 4 4 3 3
3 3 3 2 2 2 3 3 3 3 2 2 1 0 3 -0 -1 1 2 2 2 2 2 2 2 3 3 3 4 5 5 7 5 5 4 5 8 7 4 5 5 5 4 4 3
3 3 3 3 2 2 3 3 3 2 1 1 1 2 4 2 2 1 1 3 2 3 2 3 3 4 4 5 6 6 8 7 7 5 5 5 7 6 5 5 6 5 5 4 3
3 3 3 3 3 3 3 2 2 1 1 0 1 3 3 4 2 2 1 1 3 3 4 4 4 5 5 6 9 8 8 7 7 6 5 6 8 7 5 5 6 5 5 4 4
3 3 3 3 3 3 3 1 2 3 2 4 4 4 4 2 2 3 2 3 3 4 6 5 6 7 6 5 6 6 7 8 7 6 7 7 8 7 6 5 6 5 5 5 4
3 3 3 3 3 3 1 3 3 3 5 3 3 4 3 2 5 4 2 5 5 6 5 6 7 6 5 6 6 6 7 8 7 6 7 8 9 8 6 6 5 5 5 5 4
3 3 3 3 4 2 1 3 1 2 5 5 4 4 4 3 5 4 3 4 5 6 6 7 6 5 6 6 7 7 7 8 8 7 7 8 9 9 7 6 5 5 4 4 4
3 3 3 4 3 2 2 2 1 1 6 7 5 4 3 3 6 3 2 4 5 6 6 6 5 6 6 7 6 8 6 7 7 8 9 7 10 9 8 8 7 5 5 4 4
3 3 3 4 2 4 3 1 1 2 11 6 5 2 3 5 5 5 3 4 6 6 6 7 6 6 7 7 6 7 6 6 7 8 8 8 9 8 7 8 7 6 5 4 4
4 3 4 3 2 2 2 1 1 7 12 7 5 6 6 5 5 4 4 3 4 5 5 6 4 5 6 6 6 5 6 7 7 7 11 8 9 9 7 7 6 5 5 4 5
4 4 4 2 4 1 1 2 8 11 7 8 7 6 6 7 6 5 6 6 7 8 8 6 6 5 5 6 5 6 7 11 11 11 11 8 9 8 7 6 6 6 5 4 4
5 5 4 2 1 1 2 5 11 9 9 6 6 6 7 6 6 6 6 7 6 6 8 9 10 6 5 6 7 7 7 10 14 13 11 9 11 8 6 5 5 5 4 3 4
6 2 2 1 1 0 4 9 9 9 6 7 6 8 7 6 6 6 6 7 6 5 8 9 9 6 6 5 6 7 9 7 9 9 11 10 8 6 6 7 6 5 4 4 3
4 3 3 1 1 2 6 9 8 7 6 6 8 7 9 7 7 7 7 6 6 5 5 7 9 7 6 5 5 6 6 10 9 13 14 11 10 9 8 8 7 6 5 4 4
4 6 3 0 1 4 8 7 7 6 6 7 7 8 7 8 7 7 7 6 5 5 5 6 7 8 6 7 8 8 8 8 8 9 13 13 10 6 6 6 6 6 5 4 4
4 8 3 2 6 5 7 6 7 6 5 6 6 6 7 7 8 7 7 6 5 5 7 5 7 9 8 6 6 6 7 7 11 11 10 11 11 6 6 5 5 5 5 4 3
6 6 2 3 9 8 6 6 6 6 6 6 7 6 5 7 9 7 7 5 5 5 6 6 8 11 10 8 7 8 7 7 8 9 11 12 11 6 5 5 5 5 4 4 3
6 9 6 5 6 7 8 7 7 5 6 5 6 5 6 7 6 8 7 6 5 5 5 4 7 9 11 9 8 9 8 7 8 11 10 9 9 7 6 6 5 4 4 4 3
6 8 7 8 7 7 7 8 9 8 5 5 6 6 6 8 7 8 6 6 6 6 5 6 9 8 7 8 8 8 8 8 9 8 10 8 8 7 6 5 5 4 4 4 4
7 8 6 8 6 7 8 7 8 8 7 7 7 6 6 7 7 7 6 6 7 6 6 6 9 8 9 8 8 9 8 8 8 8 8 8 8 5 4 4 5 5 5 4 4
5 5 7 9 8 9 9 8 8 7 5 5 5 6 6 6 4 4 4 4 5 6 7 7 8 10 11 8 9 11 9 8 7 7 7 10 7 5 6 6 5 5 4 4 4